Location: LDNL
(36.4545°S, 141.6685°E)
Time: 13:20:30
(UTC+11:00)

Courier 1B Rocket - Pass Details

Date: 08 February 2023
Orbit: 920 x 1201 km, 28.2° (Epoch: 28 November)

Event Time Altitude Azimuth Distance (km) Brightness Sun altitude
Rises 08:33:45 0° 273° (W) 4,089 7.6 18.1°
Reaches altitude 10° 08:36:56 10° 283° (WNW) 3,137 7.1 18.8°
Maximum altitude 08:43:40 32° 342° (NNW) 1,938 6.6 20.1°
Drops below altitude 10° 08:50:25 10° 41° (NE) 3,121 8.3 21.5°
Sets 08:53:26 0° 50° (NE) 4,025 8.9 22.1°
